User: anonymous   Login
Location: Unspecified
(0.0000°N, 0.0000°E)
Time: 05:32:01
(UTC+00:00)
Language:

NAVSTAR 64 (USA 206) - Orbit

View from above orbital plane
View from above orbital plane
View from above satellite
View from above satellite

Ground track
Ground track

The orbit data is extracted from the following two-line orbital elements,

1 35752U 09043A   14352.57239200  .00000107  00000-0  00000+0 0    12
2 35752 054.2471 196.4730 0039452 020.6557 343.3428 02.00554975 39146
Epoch (UTC): 18 December 2014 13:44:14
Eccentricity: 0.0039452
inclination: 54.2471°
perigee height: 20078 km
apogee height: 20287 km
right ascension of ascending node: 196.4730°
argument of perigee: 20.6557°
revolutions per day: 2.00554975
mean anomaly at epoch: 343.3428°
orbit number at epoch: 3914

The dashed part of the orbit path shows where the satellite is in the earth's shadow,  

DLR